Newport, VT

8:06 AM EDT on September 26, 2017 (GMT -0400)
Newport State

Weather History for KEFK - January, 2013

Change the Weather History Date:

Thursday, January 24, 2013

  Actual Average Record
Temperature  
Mean Temperature -8 °F -  
Max Temperature 2 °F 28 °F 49 °F (1967)
Min Temperature -18 °F 8 °F -30 °F (1976)
Degree Days  
Heating Degree Days 73    
Moisture  
Dew Point -19 °F    
Average Humidity 57    
Maximum Humidity 70    
Minimum Humidity 36    
Precipitation  
Precipitation 0.00 in - - ()
Sea Level Pressure  
Sea Level Pressure 30.10 in    
Wind  
Wind Speed 5 mph (West)    
Max Wind Speed 20 mph    
Max Gust Speed 30 mph    
Visibility 9 miles    
Events Snow    
Averages and records for this station are not official NWS values.
T = Trace of Precipitation, MM = Missing Value Source: NWS Daily Summary

Daily Weather History Graph

Daily Weather History Graph

Search for Another Location

Airport or City:

Trip Planner

Search our weather history database for the weather conditions in past years. The results will help you decide how hot, cold, wet, or windy it might be!

Date:

Astronomy

Jan. 24, 2013 Rise Set
Actual Time 7:16 AM EST 4:46 PM EST
Civil Twilight 6:44 AM EST 5:18 PM EST
Nautical Twilight 6:08 AM EST 5:53 PM EST
Astronomical Twilight 5:34 AM EST 6:28 PM EST
Moon 2:44 PM EST (1/24) 5:13 AM EST (1/24)
Length of Visible Light 10h 33m
Length of Day
9h 29m
Waxing Gibbous, 94% of the Moon is Illuminated
Jan 24
Waxing Gibbous
Jan 26
Full
Feb 3
Last Quarter
Feb 10
New
Feb 17
First Quarter

Hourly Weather History & Observations

Time (EST) Temp. Windchill Dew Point Humidity Pressure Visibility Wind Dir Wind Speed Gust Speed Precip Events Conditions
12:15 AM -14.8 °F - -24.5 °F 62% 30.07 in 10.0 mi Calm Calm - N/A   Clear
12:55 AM -15.2 °F -25.2 °F -24.2 °F 64% 30.06 in 10.0 mi South 3.5 mph - N/A   Clear
1:15 AM -16.8 °F - -26.1 °F 63% 30.06 in 10.0 mi Calm Calm - N/A   Clear
1:35 AM -17.3 °F - -26.1 °F 64% 30.07 in 10.0 mi Calm Calm - N/A   Clear
1:55 AM -17.9 °F - -26.7 °F 64% 30.07 in 10.0 mi Calm Calm - N/A   Clear
2:15 AM -17.7 °F - -25.6 °F 67% 30.07 in 10.0 mi Calm Calm - N/A   Scattered Clouds
2:35 AM -16.6 °F - -24.7 °F 67% 30.06 in 10.0 mi Calm Calm - N/A   Mostly Cloudy
2:55 AM -17.5 °F - -25.1 °F 68% 30.06 in 10.0 mi Calm Calm - N/A   Mostly Cloudy
3:15 AM -16.1 °F - -24.3 °F 66% 30.06 in 10.0 mi Calm Calm - N/A   Mostly Cloudy
3:35 AM -14.3 °F - -23.8 °F 62% 30.06 in 10.0 mi Calm Calm - N/A   Overcast
3:55 AM -15.7 °F - -23.8 °F 67% 30.05 in 10.0 mi Calm Calm - N/A   Mostly Cloudy
4:15 AM -15.7 °F - -23.8 °F 67% 30.05 in 10.0 mi Calm Calm - N/A   Mostly Cloudy
4:35 AM -15.5 °F - -24.2 °F 65% 30.05 in 10.0 mi Calm Calm - N/A   Clear
4:55 AM -16.6 °F - -25.4 °F 64% 30.05 in 10.0 mi Calm Calm - N/A   Scattered Clouds
5:15 AM -17.5 °F - -25.2 °F 68% 30.04 in 10.0 mi Calm Calm - N/A   Scattered Clouds
5:35 AM -15.9 °F - -24.5 °F 65% 30.05 in 10.0 mi Calm Calm - N/A   Scattered Clouds
5:55 AM -18.0 °F - -26.5 °F 65% 30.06 in 10.0 mi Calm Calm - N/A   Scattered Clouds
6:15 AM -15.7 °F -25.8 °F -24.0 °F 66% 30.06 in 10.0 mi West 3.5 mph - N/A   Mostly Cloudy
6:35 AM -16.4 °F - -25.4 °F 64% 30.06 in 10.0 mi Calm Calm - N/A   Scattered Clouds
6:55 AM -17.0 °F - -25.2 °F 66% 30.07 in 10.0 mi Calm Calm - N/A   Scattered Clouds
7:15 AM -16.6 °F - -23.8 °F 70% 30.07 in 10.0 mi Calm Calm - N/A   Scattered Clouds
7:35 AM -13.9 °F - -24.2 °F 60% 30.07 in 10.0 mi Calm Calm - N/A   Clear
7:55 AM -10.3 °F - -22.9 °F 54% 30.07 in 10.0 mi Calm Calm - N/A   Scattered Clouds
8:15 AM -17.3 °F - -26.0 °F 65% 30.08 in 10.0 mi Calm Calm - N/A   Clear
8:35 AM -14.4 °F - -22.5 °F 67% 30.09 in 10.0 mi Calm Calm - N/A   Clear
8:55 AM -11.4 °F - -21.8 °F 60% 30.09 in 10.0 mi Calm Calm - N/A   Clear
9:15 AM -10.3 °F -19.6 °F -21.1 °F 59% 30.10 in 10.0 mi East 3.5 mph - N/A   Clear
9:35 AM -8.9 °F -18.0 °F -20.4 °F 57% 30.09 in 10.0 mi ESE 3.5 mph - N/A   Clear
9:55 AM -6.5 °F - -18.4 °F 56% 30.09 in 10.0 mi Calm Calm - N/A   Clear
10:15 AM -3.6 °F - -19.3 °F 47% 30.09 in 10.0 mi Calm Calm - N/A   Clear
10:35 AM -3.5 °F - -19.5 °F 46% 30.09 in 10.0 mi Calm Calm - N/A   Clear
10:55 AM -1.3 °F -14.5 °F -18.9 °F 43% 30.08 in 10.0 mi WSW 6.9 mph - N/A   Clear
11:15 AM -1.7 °F -13.5 °F -19.1 °F 43% 30.07 in 10.0 mi South 5.8 mph - N/A   Clear
11:35 AM -0.4 °F -13.4 °F -19.8 °F 40% 30.06 in 10.0 mi West 6.9 mph - N/A   Clear
11:55 AM 1.2 °F -12.7 °F -20.0 °F 36% 30.06 in 10.0 mi West 8.1 mph - N/A   Clear
12:15 PM 1.4 °F -16.9 °F -20.0 °F 36% 30.04 in 10.0 mi West 13.8 mph 20.7 mph N/A   Clear
12:35 PM 1.9 °F -13.8 °F -18.8 °F 38% 30.04 in 10.0 mi WSW 10.4 mph 18.4 mph N/A   Clear
12:55 PM 2.1 °F -14.4 °F -18.0 °F 39% 30.02 in 10.0 mi West 11.5 mph 19.6 mph N/A   Clear
1:15 PM 2.3 °F -15.7 °F -17.7 °F 39% 30.02 in 10.0 mi WSW 13.8 mph 19.6 mph N/A   Clear
1:35 PM 2.3 °F -12.4 °F -17.5 °F 39% 30.02 in 10.0 mi WSW 9.2 mph - N/A   Clear
1:55 PM 2.8 °F -15.0 °F -17.0 °F 39% 30.04 in 10.0 mi West 13.8 mph 20.7 mph N/A   Clear
2:15 PM 2.3 °F -13.4 °F -16.8 °F 41% 30.04 in 10.0 mi WNW 10.4 mph 18.4 mph N/A   Clear
2:35 PM 1.2 °F -16.4 °F -15.3 °F 46% 30.05 in 10.0 mi NW 12.7 mph 19.6 mph N/A   Scattered Clouds
2:55 PM 0.3 °F -19.0 °F -15.7 °F 47% 30.07 in 10.0 mi NW 15.0 mph 21.9 mph N/A   Mostly Cloudy
3:15 PM -1.3 °F -21.0 °F -15.9 °F 50% 30.08 in 10.0 mi WNW 15.0 mph 21.9 mph N/A   Scattered Clouds
3:35 PM -1.5 °F -20.5 °F -15.5 °F 51% 30.08 in 10.0 mi WNW 13.8 mph 23.0 mph N/A   Mostly Cloudy
3:55 PM -2.2 °F -22.9 °F -16.6 °F 50% 30.08 in 10.0 mi WNW 16.1 mph 21.9 mph N/A   Overcast
4:15 PM -2.2 °F -20.7 °F -15.9 °F 52% 30.10 in 10.0 mi WNW 12.7 mph 20.7 mph N/A   Overcast
4:35 PM -2.4 °F -20.9 °F -14.4 °F 57% 30.11 in 3.0 mi NW 12.7 mph 23.0 mph N/A Snow Light Snow
4:55 PM -2.6 °F -22.6 °F -13.5 °F 60% 30.12 in 3.0 mi WNW 15.0 mph 24.2 mph N/A Snow Light Snow
5:15 PM -2.7 °F -19.6 °F -13.9 °F 59% 30.13 in 5.0 mi WNW 10.4 mph 17.3 mph N/A   Haze
5:35 PM -2.4 °F -20.9 °F -13.2 °F 60% 30.15 in 4.0 mi West 12.7 mph 20.7 mph N/A   Haze
5:55 PM -2.4 °F -20.9 °F -13.0 °F 61% 30.14 in 4.0 mi West 12.7 mph 16.1 mph N/A   Haze
6:15 PM -2.2 °F -18.9 °F -12.5 °F 62% 30.15 in 4.0 mi WNW 10.4 mph 19.6 mph N/A   Haze
6:35 PM -2.2 °F -22.9 °F -12.3 °F 62% 30.16 in 4.0 mi West 16.1 mph 27.6 mph N/A   Haze
6:55 PM -2.2 °F -18.9 °F -11.9 °F 63% 30.18 in 4.0 mi West 10.4 mph 20.7 mph N/A   Haze
7:15 PM -1.8 °F -20.2 °F -11.7 °F 63% 30.18 in 4.0 mi WNW 12.7 mph 18.4 mph N/A   Haze
7:35 PM -1.5 °F -23.2 °F -12.3 °F 60% 30.18 in 7.0 mi West 18.4 mph 23.0 mph N/A   Overcast
7:55 PM -1.3 °F -22.3 °F -13.0 °F 58% 30.18 in 5.0 mi West 17.3 mph 26.5 mph N/A   Haze
8:15 PM -1.5 °F -23.7 °F -13.0 °F 58% 30.17 in 7.0 mi WNW 19.6 mph 26.5 mph N/A   Overcast
8:35 PM -1.3 °F -22.9 °F -13.0 °F 58% 30.17 in 4.0 mi WNW 18.4 mph 27.6 mph N/A   Haze
8:55 PM -1.1 °F -17.6 °F -13.0 °F 57% 30.20 in 7.0 mi WNW 10.4 mph 29.9 mph N/A   Overcast
9:15 PM -1.3 °F -19.6 °F -13.0 °F 58% 30.20 in 10.0 mi West 12.7 mph 19.6 mph N/A   Overcast
9:35 PM -1.3 °F -18.7 °F -13.0 °F 58% 30.21 in 10.0 mi West 11.5 mph 19.6 mph N/A   Overcast
9:55 PM -1.3 °F -22.3 °F -13.0 °F 58% 30.22 in 10.0 mi WNW 17.3 mph 25.3 mph N/A   Overcast
10:15 PM -1.5 °F -21.3 °F -12.3 °F 60% 30.22 in 7.0 mi WNW 15.0 mph 25.3 mph N/A   Overcast
10:35 PM -1.7 °F -22.2 °F -12.3 °F 61% 30.23 in 10.0 mi West 16.1 mph 23.0 mph N/A   Overcast
10:55 PM -1.8 °F -22.4 °F -12.3 °F 61% 30.23 in 7.0 mi West 16.1 mph 20.7 mph N/A   Overcast
11:15 PM -1.8 °F -21.0 °F -12.3 °F 61% 30.24 in 7.0 mi WNW 13.8 mph 24.2 mph N/A   Overcast
11:35 PM -2.0 °F -21.9 °F -12.1 °F 62% 30.25 in 7.0 mi West 15.0 mph 24.2 mph N/A   Overcast
11:55 PM -2.2 °F -21.5 °F -12.1 °F 63% 30.25 in 7.0 mi West 13.8 mph 18.4 mph N/A   Overcast